Big Bear City, CA

12:55 AM PDT on September 20, 2019 (GMT -0700)
Big Bear City

Weather History for KL35 - May, 2019

Change the Weather History Date:

Saturday, May 25, 2019

  Actual Average (WUND) Record (WUND)
Temperature  
Mean Temperature 42 °F -  
Max Temperature 53 °F - - (-1)
Min Temperature 30 °F - - (-1)
Degree Days  
Heating Degree Days 24    
Moisture  
Dew Point 32 °F    
Average Humidity 70    
Maximum Humidity 100    
Minimum Humidity 43    
Precipitation  
Precipitation 0.00 in - - ()
Sea Level Pressure  
Sea Level Pressure 29.97 in    
Wind  
Wind Speed 3 mph (WSW)    
Max Wind Speed 14 mph    
Max Gust Speed 20 mph    
Visibility 8 miles    
Events Fog    
Averages and records for this station are not official NWS values.
T = Trace of Precipitation, MM = Missing Value Source: NWS Daily Summary

Daily Weather History Graph

Daily Weather History Graph

Search for Another Location

Airport or City:

Astronomy

May. 25, 2019 Rise Set
Actual Time 5:39 AM PDT 7:49 PM PDT
Civil Twilight 5:11 AM PDT 8:18 PM PDT
Nautical Twilight 4:36 AM PDT 8:52 PM PDT
Astronomical Twilight 3:58 AM PDT 9:30 PM PDT
Moon 12:56 AM PDT (5/25) 11:39 AM PDT (5/25)
Length of Visible Light 15h 07m
Length of Day
14h 10m
Waning Gibbous, 58% of the Moon is Illuminated
May 25
Waning Gibbous
May 26
Last Quarter
Jun 3
New
Jun 9
First Quarter
Jun 17
Full

Hourly Weather History & Observations

Time (PDT) Temp. Windchill Dew Point Humidity Pressure Visibility Wind Dir Wind Speed Gust Speed Precip Events Conditions
12:15 AM 32.0 °F - 30.2 °F 93% 30.03 in 10.0 mi Calm Calm - N/A   Clear
12:35 AM 32.0 °F - 30.2 °F 93% 30.02 in 10.0 mi Calm Calm - N/A   Clear
12:55 AM 32.0 °F - 30.2 °F 93% 30.02 in 10.0 mi Calm Calm - N/A   Clear
1:15 AM 32.0 °F - 30.2 °F 93% 30.01 in 10.0 mi Calm Calm - N/A   Clear
1:35 AM 32.0 °F - 30.2 °F 93% 30.01 in 10.0 mi Calm Calm - N/A   Clear
1:55 AM 32.0 °F - 30.2 °F 93% 30.00 in 10.0 mi Calm Calm - N/A   Clear
2:15 AM 30.2 °F - 30.2 °F 100% 30.00 in 10.0 mi Calm Calm - N/A   Clear
2:35 AM 30.2 °F - 30.2 °F 100% 30.00 in 10.0 mi Calm Calm - N/A   Clear
2:55 AM 30.2 °F - 28.4 °F 93% 30.00 in 10.0 mi Calm Calm - N/A   Clear
3:15 AM 30.2 °F - 28.4 °F 93% 29.99 in 10.0 mi Calm Calm - N/A   Clear
3:35 AM 30.2 °F - 28.4 °F 93% 29.99 in 10.0 mi Calm Calm - N/A   Clear
3:55 AM 30.2 °F - 28.4 °F 93% 29.99 in 7.0 mi Calm Calm - N/A   Mostly Cloudy
4:15 AM 30.2 °F - 30.2 °F 100% 29.98 in 0.5 mi Calm Calm - N/A Fog Light Freezing Fog
4:35 AM 30.2 °F - 30.2 °F 100% 29.98 in 0.8 mi Calm Calm - N/A   Overcast
4:55 AM 30.2 °F - 30.2 °F 100% 29.98 in 0.5 mi Calm Calm - N/A Fog Light Freezing Fog
5:15 AM 30.2 °F - 30.2 °F 100% 29.97 in 0.2 mi Calm Calm - N/A Fog Light Freezing Fog
5:35 AM 30.2 °F - 30.2 °F 100% 29.98 in 0.2 mi Calm Calm - N/A Fog Light Freezing Fog
5:55 AM 30.2 °F - 30.2 °F 100% 29.98 in 0.2 mi Calm Calm - N/A Fog Light Freezing Fog
6:15 AM 30.2 °F - 30.2 °F 100% 29.98 in 0.2 mi Calm Calm - N/A Fog Light Freezing Fog
6:35 AM 32.0 °F - 30.2 °F 93% 29.98 in 0.2 mi Calm Calm - N/A Fog Light Freezing Fog
6:55 AM 32.0 °F - 32.0 °F 100% 29.98 in 0.2 mi Calm Calm - N/A Fog Fog
7:35 AM 33.8 °F 30.8 °F 33.8 °F 100% 29.98 in 0.2 mi West 3.5 mph - N/A Fog Fog
7:55 AM 35.6 °F 32.8 °F 35.6 °F 100% 29.98 in 0.5 mi West 3.5 mph - N/A Fog Fog
8:15 AM 41.0 °F - 39.2 °F 93% 29.98 in 10.0 mi Calm Calm - N/A   Scattered Clouds
8:35 AM 42.8 °F 39.3 °F 35.6 °F 76% 29.98 in 10.0 mi West 5.8 mph - N/A   Clear
8:55 AM 44.6 °F - 33.8 °F 66% 29.98 in 10.0 mi Calm Calm - N/A   Clear
9:15 AM 50.0 °F - 30.2 °F 47% 29.98 in 10.0 mi West 4.6 mph - N/A   Clear
9:35 AM 50.0 °F - 28.4 °F 43% 29.98 in 10.0 mi Calm Calm - N/A   Clear
9:55 AM 50.0 °F - 30.2 °F 47% 29.97 in 10.0 mi West 6.9 mph - N/A   Clear
10:15 AM 51.8 °F - 30.2 °F 44% 29.97 in 10.0 mi West 4.6 mph - N/A   Clear
10:35 AM 51.8 °F - 30.2 °F 44% 29.97 in 10.0 mi West 9.2 mph - N/A   Clear
10:55 AM 50.0 °F - 30.2 °F 47% 29.98 in 10.0 mi West 9.2 mph - N/A   Scattered Clouds
11:15 AM 50.0 °F - 30.2 °F 47% 29.98 in 10.0 mi WSW 8.1 mph - N/A   Scattered Clouds
11:35 AM 53.6 °F - 32.0 °F 44% 29.98 in 10.0 mi West 8.1 mph - N/A   Mostly Cloudy
11:55 AM 51.8 °F - 32.0 °F 47% 29.98 in 10.0 mi West 9.2 mph - N/A   Mostly Cloudy
12:15 PM 51.8 °F - 32.0 °F 47% 29.98 in 10.0 mi West 9.2 mph - N/A   Mostly Cloudy
12:35 PM 51.8 °F - 32.0 °F 47% 29.98 in 10.0 mi West 11.5 mph - N/A   Scattered Clouds
12:55 PM 53.6 °F - 32.0 °F 44% 29.98 in 10.0 mi West 11.5 mph 18.4 mph N/A   Clear
1:15 PM 53.6 °F - 33.8 °F 47% 29.98 in 10.0 mi WSW 9.2 mph 16.1 mph N/A   Clear
1:35 PM 53.6 °F - 32.0 °F 44% 29.98 in 10.0 mi West 9.2 mph - N/A   Scattered Clouds
1:55 PM 53.6 °F - 33.8 °F 47% 29.97 in 10.0 mi West 11.5 mph - N/A   Mostly Cloudy
2:15 PM 53.6 °F - 35.6 °F 51% 29.97 in 10.0 mi West 13.8 mph - N/A   Mostly Cloudy
2:35 PM 53.6 °F - 35.6 °F 51% 29.96 in 10.0 mi West 9.2 mph 19.6 mph N/A   Mostly Cloudy
2:55 PM 53.6 °F - 35.6 °F 51% 29.96 in 10.0 mi West 9.2 mph 19.6 mph N/A   Mostly Cloudy
3:15 PM 51.8 °F - 35.6 °F 54% 29.95 in 10.0 mi WNW 11.5 mph 17.3 mph N/A   Mostly Cloudy
3:35 PM 53.6 °F - 37.4 °F 54% 29.95 in 10.0 mi SW 6.9 mph 18.4 mph N/A   Mostly Cloudy
3:55 PM 51.8 °F - 35.6 °F 54% 29.95 in 10.0 mi WSW 4.6 mph - N/A   Mostly Cloudy
4:15 PM 51.8 °F - 35.6 °F 54% 29.95 in 10.0 mi WSW 10.4 mph - N/A   Scattered Clouds
4:35 PM 53.6 °F - 35.6 °F 51% 29.94 in 10.0 mi West 4.6 mph - N/A   Scattered Clouds
4:55 PM 53.6 °F - 35.6 °F 51% 29.94 in 10.0 mi WSW 9.2 mph - N/A   Scattered Clouds
5:15 PM 51.8 °F - 35.6 °F 54% 29.94 in 10.0 mi West 6.9 mph - N/A   Scattered Clouds
5:35 PM 51.8 °F - 35.6 °F 54% 29.94 in 10.0 mi SW 6.9 mph - N/A   Scattered Clouds
5:55 PM 51.8 °F - 35.6 °F 54% 29.94 in 10.0 mi West 12.7 mph - N/A   Scattered Clouds
6:15 PM 50.0 °F - 35.6 °F 58% 29.94 in 10.0 mi West 12.7 mph - N/A   Scattered Clouds
6:35 PM 50.0 °F - 35.6 °F 58% 29.94 in 10.0 mi SSW 5.8 mph 9.2 mph N/A   Scattered Clouds
6:55 PM 48.2 °F - 35.6 °F 62% 29.94 in 10.0 mi West 6.9 mph - N/A   Scattered Clouds
7:15 PM 46.4 °F 45.2 °F 37.4 °F 71% 29.94 in 10.0 mi SW 3.5 mph - N/A   Clear
7:35 PM 44.6 °F 42.2 °F 35.6 °F 71% 29.94 in 10.0 mi SW 4.6 mph - N/A   Clear
7:55 PM 44.6 °F - 35.6 °F 71% 29.94 in 10.0 mi Calm Calm - N/A   Clear
8:15 PM 42.8 °F 40.1 °F 35.6 °F 76% 29.94 in 10.0 mi West 4.6 mph - N/A   Clear
8:35 PM 42.8 °F 38.6 °F 35.6 °F 76% 29.94 in 10.0 mi West 6.9 mph - N/A   Clear
8:55 PM 41.0 °F 38.0 °F 35.6 °F 81% 29.94 in 10.0 mi WSW 4.6 mph - N/A   Clear
9:15 PM 41.0 °F 39.0 °F 35.6 °F 81% 29.94 in 10.0 mi West 3.5 mph - N/A   Clear
9:35 PM 41.0 °F - 35.6 °F 81% 29.94 in 10.0 mi Calm Calm - N/A   Clear
9:55 PM 41.0 °F 39.0 °F 32.0 °F 70% 29.94 in 10.0 mi WSW 3.5 mph - N/A   Clear
10:15 PM 41.0 °F 38.0 °F 26.6 °F 57% 29.94 in 10.0 mi WSW 4.6 mph - N/A   Clear
10:35 PM 41.0 °F - 23.0 °F 49% 29.94 in 10.0 mi Calm Calm - N/A   Clear
10:55 PM 37.4 °F - 26.6 °F 65% 29.93 in 10.0 mi Calm Calm - N/A   Clear
11:15 PM 37.4 °F 33.8 °F 21.2 °F 52% 29.93 in 10.0 mi WSW 4.6 mph - N/A   Clear
11:35 PM 37.4 °F - 19.4 °F 48% 29.92 in 10.0 mi Calm Calm - N/A   Clear
11:55 PM 37.4 °F - 19.4 °F 48% 29.92 in 10.0 mi Calm Calm - N/A   Clear